QPF
0.01 0.01 0.01 0.01 0.01 0.01 0.00 0.00 0.00 0.00 0.00 0.00 0.00 0.00 0.00 0.00 0.00 0.00 0.00 0.00 0.00 0.00 0.00 0.00 0.00 0.00 0.00 0.00 0.01 0.03 0.08 0.16 0.21 0.20 0.22 0.24 0.24 0.23 0.24 0.28 0.29 0.21 0.13 0.09
0.01 0.00 0.00 0.01 0.00 0.00 0.00 0.00 0.00 0.00 0.00 0.00 0.00 0.00 0.00 0.00 0.00 0.00 0.00 0.00 0.00 0.00 0.00 0.00 0.00 0.00 0.00 0.00 0.01 0.03 0.07 0.14 0.19 0.21 0.24 0.25 0.28 0.29 0.29 0.33 0.33 0.30 0.23 0.15
0.00 0.00 0.00 0.00 0.00 0.00 0.00 0.00 0.00 0.00 0.00 0.00 0.00 0.00 0.00 0.00 0.00 0.00 0.00 0.00 0.00 0.00 0.00 0.00 0.00 0.00 0.00 0.00 0.00 0.01 0.04 0.08 0.13 0.17 0.19 0.18 0.16 0.14 0.14 0.16 0.19 0.22 0.24 0.21
0.00 0.00 0.00 0.00 0.00 0.00 0.00 0.00 0.00 0.00 0.00 0.00 0.00 0.00 0.00 0.00 0.00 0.00 0.00 0.00 0.00 0.00 0.00 0.00 0.00 0.00 0.00 0.00 0.00 0.00 0.01 0.03 0.04 0.07 0.08 0.07 0.05 0.04 0.06 0.09 0.13 0.16 0.21 0.24
0.00 0.00 0.00 0.00 0.00 0.00 0.00 0.00 0.00 0.00 0.00 0.00 0.00 0.00 0.00 0.00 0.00 0.00 0.00 0.00 0.00 0.00 0.00 0.00 0.00 0.00 0.00 0.00 0.00 0.00 0.00 0.00 0.00 0.01 0.01 0.01 0.01 0.01 0.03 0.07 0.12 0.14 0.18 0.23
0.00 0.00 0.00 0.00 0.00 0.00 0.00 0.00 0.00 0.00 0.00 0.00 0.00 0.00 0.00 0.00 0.00 0.00 0.00 0.00 0.00 0.00 0.00 0.00 0.00 0.00 0.00 0.00 0.00 0.00 0.00 0.00 0.00 0.00 0.00 0.00 0.00 0.00 0.01 0.06 0.13 0.17 0.20 0.24
0.00 0.00 0.00 0.00 0.00 0.00 0.00 0.00 0.00 0.00 0.00 0.00 0.00 0.00 0.00 0.00 0.00 0.00 0.00 0.00 0.00 0.00 0.00 0.00 0.00 0.00 0.00 0.00 0.00 0.00 0.00 0.00 0.00 0.00 0.00 0.00 0.00 0.00 0.02 0.05 0.11 0.18 0.24 0.27
0.00 0.00 0.00 0.00 0.00 0.00 0.00 0.00 0.00 0.00 0.00 0.00 0.00 0.00 0.00 0.00 0.00 0.00 0.00 0.00 0.00 0.00 0.00 0.00 0.00 0.00 0.00 0.00 0.00 0.00 0.00 0.00 0.00 0.00 0.00 0.00 0.00 0.00 0.01 0.03 0.06 0.12 0.17 0.21
0.00 0.00 0.00 0.00 0.00 0.00 0.00 0.00 0.00 0.00 0.00 0.00 0.00 0.00 0.00 0.00 0.00 0.00 0.00 0.00 0.00 0.00 0.00 0.00 0.00 0.00 0.00 0.00 0.00 0.00 0.00 0.00 0.00 0.00 0.00 0.00 0.00 0.00 0.00 0.01 0.02 0.04 0.07 0.09
0.00 0.00 0.00 0.00 0.00 0.00 0.00 0.00 0.00 0.00 0.00 0.00 0.00 0.00 0.00 0.00 0.00 0.00 0.00 0.00 0.00 0.00 0.00 0.00 0.00 0.00 0.00 0.00 0.00 0.00 0.00 0.00 0.00 0.00 0.00 0.00 0.00 0.00 0.00 0.01 0.01 0.02 0.02 0.03
0.03 0.01 0.00 0.00 0.01 0.02 0.01 0.01 0.01 0.01 0.01 0.00 0.00 0.00 0.00 0.00 0.00 0.00 0.00 0.00 0.00 0.00 0.00 0.00 0.00 0.00 0.00 0.00 0.00 0.00 0.00 0.00 0.00 0.00 0.00 0.00 0.00 0.00 0.00 0.01 0.01 0.01 0.01 0.01
0.05 0.06 0.03 0.02 0.02 0.03 0.05 0.06 0.05 0.04 0.03 0.01 0.00 0.00 0.00 0.00 0.00 0.00 0.00 0.00 0.00 0.00 0.00 0.00 0.00 0.00 0.00 0.00 0.00 0.00 0.00 0.00 0.00 0.00 0.00 0.00 0.00 0.00 0.01 0.01 0.01 0.02 0.02 0.02
0.06 0.11 0.09 0.04 0.03 0.04 0.06 0.08 0.10 0.09 0.07 0.03 0.01 0.00 0.00 0.00 0.00 0.01 0.01 0.01 0.01 0.01 0.01 0.00 0.00 0.00 0.00 0.00 0.00 0.00 0.00 0.00 0.00 0.00 0.00 0.00 0.00 0.00 0.00 0.01 0.01 0.02 0.02 0.02
0.06 0.09 0.10 0.06 0.04 0.03 0.02 0.03 0.04 0.04 0.03 0.01 0.01 0.00 0.01 0.01 0.01 0.01 0.01 0.01 0.01 0.01 0.01 0.00 0.00 0.00 0.00 0.00 0.00 0.00 0.00 0.00 0.00 0.00 0.00 0.00 0.00 0.00 0.00 0.00 0.00 0.01 0.01 0.02
0.06 0.04 0.04 0.03 0.03 0.02 0.01 0.00 0.01 0.01 0.01 0.00 0.00 0.00 0.01 0.02 0.02 0.01 0.02 0.01 0.01 0.01 0.01 0.00 0.00 0.00 0.00 0.00 0.00 0.00 0.00 0.00 0.00 0.00 0.00 0.00 0.00 0.00 0.00 0.00 0.00 0.00 0.00 0.00
0.02 0.01 0.01 0.01 0.01 0.01 0.00 0.00 0.00 0.00 0.00 0.00 0.00 0.00 0.00 0.01 0.01 0.01 0.01 0.01 0.01 0.01 0.01 0.00 0.00 0.00 0.00 0.00 0.00 0.01 0.02 0.02 0.01 0.01 0.01 0.00 0.00 0.00 0.00 0.00 0.00 0.00 0.00 0.00
0.00 0.01 0.01 0.01 0.02 0.01 0.00 0.00 0.00 0.00 0.00 0.00 0.00 0.00 0.00 0.00 0.00 0.00 0.01 0.01 0.01 0.01 0.00 0.00 0.00 0.00 0.00 0.01 0.02 0.03 0.05 0.05 0.04 0.05 0.05 0.03 0.02 0.01 0.01 0.01 0.01 0.01 0.01 0.00
0.00 0.01 0.02 0.02 0.02 0.01 0.01 0.00 0.00 0.00 0.00 0.00 0.00 0.00 0.00 0.00 0.00 0.01 0.01 0.01 0.00 0.00 0.00 0.00 0.00 0.00 0.00 0.01 0.02 0.04 0.07 0.07 0.07 0.08 0.08 0.08 0.06 0.06 0.05 0.02 0.02 0.02 0.02 0.01
0.04 0.03 0.03 0.03 0.03 0.01 0.01 0.00 0.00 0.00 0.00 0.00 0.00 0.00 0.00 0.00 0.01 0.01 0.00 0.00 0.00 0.00 0.00 0.00 0.00 0.00 0.00 0.00 0.00 0.01 0.02 0.04 0.05 0.06 0.08 0.10 0.11 0.11 0.10 0.06 0.05 0.05 0.04 0.03
0.11 0.09 0.07 0.04 0.03 0.01 0.01 0.00 0.00 0.00 0.00 0.00 0.00 0.00 0.00 0.00 0.00 0.00 0.00 0.00 0.00 0.00 0.00 0.00 0.00 0.00 0.00 0.00 0.00 0.00 0.00 0.01 0.02 0.04 0.07 0.09 0.11 0.11 0.12 0.13 0.13 0.10 0.08 0.06
0.09 0.10 0.09 0.06 0.04 0.02 0.01 0.01 0.01 0.00 0.00 0.00 0.00 0.00 0.00 0.00 0.00 0.00 0.00 0.00 0.00 0.00 0.00 0.00 0.00 0.00 0.00 0.00 0.00 0.00 0.00 0.00 0.00 0.01 0.02 0.03 0.06 0.09 0.13 0.17 0.18 0.18 0.17 0.12
0.10 0.13 0.12 0.08 0.05 0.03 0.02 0.01 0.01 0.00 0.00 0.00 0.00 0.00 0.00 0.00 0.00 0.00 0.00 0.00 0.00 0.00 0.00 0.00 0.00 0.00 0.00 0.00 0.00 0.00 0.00 0.00 0.00 0.00 0.00 0.01 0.02 0.04 0.08 0.13 0.19 0.23 0.22 0.20
0.10 0.17 0.19 0.14 0.08 0.03 0.01 0.01 0.00 0.00 0.00 0.00 0.00 0.00 0.00 0.00 0.00 0.00 0.00 0.00 0.00 0.00 0.00 0.00 0.00 0.00 0.00 0.00 0.00 0.00 0.00 0.00 0.00 0.00 0.00 0.00 0.00 0.01 0.05 0.13 0.21 0.26 0.27 0.24
0.04 0.05 0.06 0.06 0.04 0.02 0.01 0.00 0.00 0.00 0.00 0.00 0.00 0.00 0.00 0.00 0.00 0.00 0.00 0.00 0.00 0.00 0.00 0.00 0.00 0.00 0.00 0.00 0.00 0.00 0.00 0.00 0.00 0.00 0.00 0.00 0.00 0.01 0.03 0.08 0.14 0.19 0.21 0.18
0.01 0.01 0.02 0.02 0.01 0.01 0.00 0.00 0.00 0.00 0.00 0.00 0.00 0.00 0.00 0.00 0.00 0.00 0.00 0.00 0.00 0.00 0.00 0.00 0.00 0.00 0.00 0.00 0.00 0.00 0.00 0.00 0.00 0.00 0.00 0.00 0.00 0.01 0.02 0.04 0.06 0.07 0.07 0.07
0.00 0.00 0.00 0.00 0.01 0.01 0.01 0.00 0.00 0.00 0.00 0.00 0.00 0.00 0.00 0.00 0.00 0.00 0.00 0.00 0.00 0.00 0.00 0.00 0.00 0.00 0.00 0.00 0.00 0.00 0.00 0.00 0.00 0.00 0.00 0.00 0.00 0.00 0.00 0.01 0.01 0.02 0.03 0.03
MSLP
1011.58 1012.02 1012.36 1012.61 1012.78 1012.90 1012.98 1013.04 1013.06 1013.02 1012.89 1012.67 1012.34 1011.92 1011.45 1010.96 1010.50 1010.12 1009.83 1009.63 1009.50 1009.41 1009.33 1009.22 1009.08 1008.91 1008.76 1008.66 1008.66 1008.79 1009.08 1009.52 1010.06 1010.65 1011.23 1011.75 1012.17 1012.48 1012.69 1012.83 1012.96 1013.12 1013.35 1013.68
1011.99 1012.32 1012.55 1012.69 1012.80 1012.91 1013.03 1013.17 1013.31 1013.39 1013.37 1013.22 1012.91 1012.45 1011.90 1011.30 1010.73 1010.24 1009.88 1009.66 1009.55 1009.51 1009.49 1009.45 1009.35 1009.20 1009.03 1008.89 1008.84 1008.92 1009.16 1009.57 1010.10 1010.70 1011.29 1011.81 1012.22 1012.50 1012.65 1012.73 1012.78 1012.87 1013.05 1013.34
1012.23 1012.44 1012.55 1012.60 1012.66 1012.78 1012.96 1013.22 1013.49 1013.71 1013.80 1013.71 1013.41 1012.91 1012.26 1011.53 1010.82 1010.23 1009.79 1009.54 1009.45 1009.47 1009.53 1009.58 1009.55 1009.46 1009.31 1009.16 1009.07 1009.10 1009.30 1009.66 1010.17 1010.75 1011.33 1011.85 1012.25 1012.50 1012.61 1012.64 1012.64 1012.67 1012.80 1013.05
1012.34 1012.42 1012.41 1012.38 1012.42 1012.56 1012.84 1013.22 1013.64 1014.00 1014.21 1014.18 1013.88 1013.31 1012.55 1011.68 1010.82 1010.09 1009.56 1009.26 1009.17 1009.25 1009.40 1009.55 1009.62 1009.60 1009.50 1009.37 1009.27 1009.27 1009.42 1009.73 1010.19 1010.74 1011.31 1011.81 1012.19 1012.43 1012.52 1012.52 1012.49 1012.50 1012.60 1012.83
1012.38 1012.32 1012.21 1012.13 1012.15 1012.35 1012.73 1013.25 1013.82 1014.32 1014.63 1014.65 1014.34 1013.70 1012.81 1011.78 1010.76 1009.88 1009.23 1008.87 1008.77 1008.88 1009.11 1009.35 1009.54 1009.61 1009.58 1009.49 1009.39 1009.37 1009.48 1009.74 1010.15 1010.65 1011.18 1011.66 1012.04 1012.27 1012.37 1012.37 1012.34 1012.34 1012.43 1012.65
1012.43 1012.25 1012.04 1011.91 1011.94 1012.20 1012.68 1013.34 1014.05 1014.67 1015.07 1015.14 1014.80 1014.09 1013.08 1011.89 1010.70 1009.66 1008.89 1008.44 1008.30 1008.43 1008.71 1009.04 1009.32 1009.49 1009.54 1009.50 1009.42 1009.39 1009.47 1009.68 1010.04 1010.48 1010.97 1011.43 1011.79 1012.03 1012.14 1012.17 1012.16 1012.18 1012.29 1012.51
1012.55 1012.26 1011.97 1011.81 1011.85 1012.17 1012.74 1013.50 1014.33 1015.05 1015.52 1015.61 1015.25 1014.47 1013.34 1012.02 1010.68 1009.49 1008.59 1008.04 1007.85 1007.96 1008.28 1008.67 1009.03 1009.29 1009.41 1009.43 1009.38 1009.35 1009.40 1009.58 1009.87 1010.27 1010.71 1011.13 1011.49 1011.74 1011.87 1011.94 1011.97 1012.02 1012.15 1012.39
1012.78 1012.39 1012.05 1011.86 1011.91 1012.26 1012.89 1013.73 1014.62 1015.40 1015.91 1016.00 1015.62 1014.79 1013.58 1012.15 1010.69 1009.38 1008.37 1007.73 1007.48 1007.56 1007.88 1008.30 1008.72 1009.04 1009.23 1009.30 1009.30 1009.28 1009.31 1009.45 1009.70 1010.04 1010.44 1010.84 1011.18 1011.44 1011.60 1011.70 1011.77 1011.86 1012.02 1012.27
1013.10 1012.65 1012.27 1012.05 1012.10 1012.46 1013.11 1013.96 1014.87 1015.66 1016.16 1016.25 1015.84 1014.97 1013.72 1012.23 1010.70 1009.32 1008.23 1007.52 1007.21 1007.25 1007.55 1007.97 1008.42 1008.78 1009.03 1009.14 1009.18 1009.18 1009.21 1009.33 1009.54 1009.85 1010.21 1010.57 1010.91 1011.17 1011.35 1011.48 1011.58 1011.71 1011.89 1012.15
1013.48 1013.00 1012.59 1012.36 1012.39 1012.72 1013.34 1014.15 1015.01 1015.75 1016.21 1016.26 1015.83 1014.94 1013.68 1012.18 1010.65 1009.25 1008.13 1007.38 1007.02 1007.02 1007.28 1007.69 1008.13 1008.52 1008.79 1008.95 1009.02 1009.05 1009.10 1009.21 1009.41 1009.69 1010.03 1010.37 1010.69 1010.96 1011.15 1011.30 1011.42 1011.56 1011.75 1012.01
1013.84 1013.37 1012.96 1012.71 1012.71 1012.99 1013.53 1014.24 1014.99 1015.63 1015.99 1015.98 1015.52 1014.63 1013.39 1011.94 1010.45 1009.09 1007.99 1007.24 1006.86 1006.82 1007.04 1007.42 1007.84 1008.22 1008.51 1008.70 1008.80 1008.87 1008.95 1009.08 1009.29 1009.56 1009.88 1010.22 1010.53 1010.80 1011.00 1011.16 1011.29 1011.43 1011.60 1011.85
1014.13 1013.69 1013.30 1013.05 1013.02 1013.22 1013.64 1014.20 1014.80 1015.28 1015.51 1015.40 1014.90 1014.03 1012.84 1011.47 1010.07 1008.79 1007.76 1007.04 1006.66 1006.60 1006.79 1007.12 1007.51 1007.87 1008.16 1008.37 1008.51 1008.62 1008.73 1008.90 1009.13 1009.41 1009.74 1010.08 1010.39 1010.66 1010.87 1011.03 1011.16 1011.29 1011.45 1011.66
1014.30 1013.92 1013.57 1013.33 1013.26 1013.37 1013.66 1014.05 1014.45 1014.74 1014.81 1014.59 1014.04 1013.16 1012.04 1010.77 1009.49 1008.33 1007.39 1006.74 1006.39 1006.32 1006.47 1006.76 1007.11 1007.44 1007.73 1007.95 1008.12 1008.27 1008.43 1008.64 1008.90 1009.21 1009.56 1009.91 1010.23 1010.50 1010.72 1010.88 1011.01 1011.13 1011.28 1011.46
1014.34 1014.03 1013.74 1013.52 1013.42 1013.45 1013.60 1013.81 1014.00 1014.08 1013.98 1013.63 1013.01 1012.14 1011.07 1009.91 1008.77 1007.74 1006.92 1006.35 1006.04 1005.98 1006.11 1006.36 1006.67 1006.97 1007.24 1007.47 1007.67 1007.86 1008.07 1008.31 1008.61 1008.95 1009.31 1009.67 1010.00 1010.29 1010.51 1010.69 1010.82 1010.95 1011.08 1011.24
1014.28 1014.04 1013.81 1013.63 1013.52 1013.47 1013.49 1013.53 1013.52 1013.40 1013.12 1012.63 1011.94 1011.06 1010.06 1009.00 1007.98 1007.09 1006.39 1005.91 1005.66 1005.62 1005.74 1005.96 1006.23 1006.51 1006.77 1007.00 1007.22 1007.43 1007.67 1007.95 1008.27 1008.62 1009.00 1009.37 1009.70 1010.00 1010.23 1010.42 1010.58 1010.71 1010.85 1011.01
1014.18 1014.01 1013.84 1013.68 1013.56 1013.47 1013.38 1013.26 1013.08 1012.78 1012.33 1011.73 1010.96 1010.07 1009.11 1008.15 1007.25 1006.48 1005.90 1005.51 1005.32 1005.31 1005.43 1005.64 1005.89 1006.15 1006.39 1006.62 1006.84 1007.07 1007.32 1007.61 1007.93 1008.28 1008.64 1009.00 1009.34 1009.63 1009.88 1010.09 1010.27 1010.43 1010.59 1010.76
1014.12 1013.98 1013.84 1013.72 1013.59 1013.45 1013.28 1013.05 1012.72 1012.28 1011.70 1011.00 1010.18 1009.28 1008.36 1007.47 1006.68 1006.02 1005.54 1005.24 1005.11 1005.14 1005.27 1005.48 1005.72 1005.96 1006.19 1006.41 1006.63 1006.85 1007.09 1007.36 1007.65 1007.97 1008.30 1008.63 1008.94 1009.22 1009.47 1009.70 1009.90 1010.10 1010.29 1010.49
1014.14 1014.00 1013.88 1013.76 1013.62 1013.45 1013.22 1012.91 1012.48 1011.94 1011.27 1010.50 1009.64 1008.75 1007.87 1007.05 1006.34 1005.78 1005.39 1005.17 1005.10 1005.16 1005.32 1005.53 1005.77 1006.01 1006.23 1006.44 1006.64 1006.83 1007.04 1007.26 1007.50 1007.75 1008.02 1008.29 1008.55 1008.80 1009.05 1009.28 1009.51 1009.75 1009.98 1010.22
1014.30 1014.13 1013.97 1013.83 1013.67 1013.47 1013.20 1012.82 1012.34 1011.74 1011.03 1010.23 1009.37 1008.49 1007.66 1006.90 1006.27 1005.79 1005.48 1005.32 1005.30 1005.40 1005.58 1005.81 1006.05 1006.29 1006.50 1006.70 1006.87 1007.03 1007.18 1007.33 1007.49 1007.66 1007.85 1008.03 1008.23 1008.44 1008.66 1008.89 1009.13 1009.40 1009.67 1009.95
1014.60 1014.35 1014.13 1013.94 1013.73 1013.49 1013.17 1012.77 1012.26 1011.64 1010.92 1010.13 1009.29 1008.46 1007.68 1006.99 1006.43 1006.02 1005.76 1005.66 1005.68 1005.81 1006.02 1006.26 1006.51 1006.75 1006.96 1007.14 1007.28 1007.39 1007.48 1007.56 1007.64 1007.71 1007.80 1007.90 1008.02 1008.17 1008.35 1008.56 1008.81 1009.09 1009.38 1009.69
1015.01 1014.65 1014.35 1014.06 1013.79 1013.49 1013.14 1012.71 1012.19 1011.58 1010.88 1010.12 1009.34 1008.57 1007.85 1007.23 1006.73 1006.38 1006.17 1006.11 1006.16 1006.32 1006.54 1006.79 1007.05 1007.29 1007.49 1007.66 1007.77 1007.85 1007.88 1007.89 1007.89 1007.88 1007.87 1007.89 1007.93 1008.02 1008.15 1008.34 1008.58 1008.85 1009.16 1009.48
1015.48 1015.00 1014.58 1014.20 1013.83 1013.46 1013.06 1012.61 1012.09 1011.50 1010.84 1010.14 1009.42 1008.72 1008.07 1007.51 1007.08 1006.77 1006.61 1006.57 1006.65 1006.81 1007.04 1007.30 1007.56 1007.80 1008.00 1008.15 1008.25 1008.30 1008.30 1008.26 1008.19 1008.11 1008.04 1007.99 1007.98 1008.01 1008.10 1008.26 1008.47 1008.73 1009.03 1009.33
1015.95 1015.36 1014.81 1014.31 1013.84 1013.39 1012.94 1012.45 1011.93 1011.36 1010.74 1010.10 1009.45 1008.82 1008.24 1007.76 1007.37 1007.11 1006.97 1006.96 1007.04 1007.21 1007.43 1007.69 1007.94 1008.18 1008.38 1008.53 1008.62 1008.66 1008.64 1008.58 1008.49 1008.38 1008.27 1008.19 1008.14 1008.14 1008.20 1008.32 1008.51 1008.74 1009.01 1009.29
1016.36 1015.67 1015.01 1014.39 1013.82 1013.28 1012.76 1012.23 1011.69 1011.13 1010.55 1009.96 1009.37 1008.81 1008.31 1007.88 1007.54 1007.32 1007.20 1007.20 1007.28 1007.44 1007.66 1007.90 1008.15 1008.38 1008.58 1008.73 1008.83 1008.87 1008.87 1008.81 1008.73 1008.63 1008.53 1008.44 1008.39 1008.38 1008.42 1008.53 1008.68 1008.88 1009.11 1009.35
1016.68 1015.91 1015.15 1014.44 1013.77 1013.14 1012.54 1011.96 1011.40 1010.83 1010.27 1009.71 1009.17 1008.67 1008.22 1007.84 1007.55 1007.36 1007.27 1007.27 1007.35 1007.50 1007.70 1007.93 1008.17 1008.39 1008.59 1008.75 1008.87 1008.94 1008.96 1008.95 1008.90 1008.84 1008.78 1008.72 1008.69 1008.70 1008.75 1008.84 1008.97 1009.14 1009.32 1009.52
1016.87 1016.04 1015.23 1014.43 1013.68 1012.97 1012.30 1011.67 1011.06 1010.47 1009.91 1009.37 1008.86 1008.39 1007.99 1007.65 1007.40 1007.24 1007.16 1007.17 1007.26 1007.40 1007.59 1007.81 1008.04 1008.26 1008.46 1008.63 1008.77 1008.87 1008.94 1008.98 1009.00 1009.00 1009.00 1009.00 1009.02 1009.06 1009.12 1009.22 1009.33 1009.47 1009.62 1009.77
Thickness
5740 5731 5725 5731 5737 5739 5738 5734 5732 5743 5759 5755 5749 5751 5765 5775 5774 5773 5770 5768 5768 5770 5773 5775 5776 5776 5775 5773 5769 5765 5760 5754 5748 5741 5734 5730 5727 5725 5722 5720 5718 5716 5714 5711
5720 5718 5732 5739 5740 5737 5733 5727 5726 5738 5752 5747 5742 5746 5760 5768 5771 5773 5770 5766 5764 5764 5766 5768 5769 5768 5766 5764 5762 5758 5753 5748 5743 5738 5733 5729 5726 5723 5720 5718 5715 5713 5711 5710
5707 5720 5734 5732 5729 5727 5726 5722 5722 5725 5737 5742 5735 5734 5748 5763 5769 5771 5770 5766 5761 5760 5760 5761 5760 5759 5758 5756 5754 5751 5747 5742 5737 5732 5728 5723 5720 5718 5714 5712 5711 5710 5709 5707
5707 5720 5723 5722 5722 5724 5715 5730 5728 5724 5715 5708 5720 5703 5732 5746 5750 5759 5760 5758 5756 5756 5756 5755 5754 5753 5752 5751 5748 5745 5740 5735 5731 5727 5722 5718 5714 5711 5710 5709 5709 5707 5706 5703
5703 5713 5713 5712 5720 5724 5720 5731 5723 5717 5710 5702 5708 5700 5716 5736 5739 5750 5753 5753 5753 5752 5752 5751 5750 5749 5748 5746 5743 5739 5734 5730 5725 5721 5717 5712 5708 5707 5705 5705 5704 5702 5700 5698
5705 5718 5718 5717 5725 5725 5723 5715 5706 5696 5692 5683 5702 5695 5701 5725 5737 5746 5750 5751 5750 5749 5749 5748 5746 5744 5742 5739 5736 5732 5727 5722 5718 5714 5710 5707 5704 5702 5700 5698 5697 5696 5694 5692
5690 5704 5717 5722 5713 5715 5710 5690 5670 5671 5665 5673 5697 5694 5702 5734 5743 5745 5747 5748 5748 5748 5746 5743 5740 5737 5735 5732 5729 5725 5720 5716 5712 5708 5705 5703 5701 5699 5697 5695 5692 5690 5688 5686
5668 5675 5703 5712 5707 5701 5698 5690 5668 5659 5658 5669 5689 5686 5710 5738 5746 5750 5750 5748 5746 5744 5743 5740 5738 5734 5731 5728 5724 5720 5715 5711 5707 5704 5701 5699 5698 5696 5694 5692 5689 5687 5685 5684
5667 5671 5700 5709 5713 5707 5694 5689 5696 5673 5667 5665 5676 5693 5714 5737 5742 5744 5744 5741 5739 5740 5740 5738 5736 5732 5728 5724 5720 5716 5711 5707 5704 5700 5697 5695 5693 5692 5690 5688 5686 5684 5682 5682
5669 5663 5684 5699 5709 5705 5699 5689 5673 5665 5655 5651 5667 5680 5693 5717 5725 5733 5734 5733 5735 5736 5736 5736 5733 5730 5726 5722 5718 5713 5708 5705 5701 5698 5695 5692 5690 5689 5687 5684 5682 5680 5678 5678
5666 5657 5667 5680 5686 5686 5688 5682 5672 5661 5661 5650 5650 5672 5707 5713 5720 5722 5726 5728 5729 5731 5732 5732 5730 5727 5723 5718 5714 5709 5704 5701 5697 5695 5692 5689 5687 5685 5683 5680 5678 5676 5674 5673
5660 5650 5650 5665 5684 5687 5684 5680 5668 5659 5656 5654 5649 5669 5717 5717 5717 5718 5721 5724 5727 5729 5730 5729 5726 5722 5718 5713 5709 5704 5700 5697 5695 5692 5689 5686 5684 5681 5678 5677 5674 5672 5669 5668
5655 5644 5638 5649 5660 5670 5671 5670 5667 5660 5651 5642 5642 5667 5709 5712 5717 5718 5718 5721 5724 5726 5727 5726 5723 5718 5714 5710 5705 5701 5697 5694 5692 5689 5685 5682 5679 5677 5675 5673 5671 5668 5665 5663
5651 5637 5634 5634 5646 5655 5659 5664 5661 5654 5643 5642 5649 5668 5691 5702 5708 5714 5716 5719 5722 5723 5724 5723 5719 5716 5712 5708 5703 5699 5696 5692 5689 5685 5681 5678 5676 5674 5672 5669 5666 5663 5660 5658
5639 5630 5635 5642 5653 5653 5656 5661 5661 5654 5654 5648 5660 5669 5686 5696 5703 5709 5714 5717 5719 5721 5721 5720 5718 5714 5709 5704 5700 5697 5693 5689 5685 5681 5677 5675 5672 5670 5667 5664 5661 5659 5656 5655
5630 5627 5631 5635 5648 5649 5651 5662 5662 5658 5658 5656 5661 5671 5693 5699 5700 5702 5707 5711 5713 5717 5718 5717 5715 5711 5705 5701 5696 5693 5690 5686 5681 5676 5673 5670 5666 5663 5662 5659 5657 5654 5652 5650
5620 5619 5619 5619 5633 5638 5638 5656 5659 5660 5662 5659 5654 5669 5686 5687 5692 5697 5703 5707 5709 5713 5713 5712 5710 5706 5702 5697 5693 5689 5687 5682 5676 5671 5667 5664 5661 5658 5656 5654 5651 5649 5648 5646
5614 5612 5610 5612 5622 5620 5645 5660 5663 5659 5659 5658 5658 5666 5677 5684 5692 5697 5702 5704 5706 5709 5709 5707 5704 5700 5696 5692 5688 5685 5680 5676 5671 5667 5663 5659 5656 5653 5651 5648 5647 5645 5643 5641
5612 5610 5606 5606 5613 5624 5642 5653 5656 5650 5651 5658 5656 5665 5675 5686 5690 5693 5701 5704 5704 5702 5699 5697 5695 5691 5687 5684 5681 5677 5673 5669 5665 5661 5657 5654 5652 5649 5646 5644 5642 5640 5638 5637
5606 5607 5604 5605 5610 5615 5628 5647 5658 5651 5644 5655 5655 5659 5667 5675 5672 5681 5693 5694 5693 5693 5691 5688 5685 5683 5679 5675 5672 5668 5664 5661 5657 5655 5652 5649 5647 5645 5643 5640 5638 5635 5633 5632
5594 5597 5599 5600 5606 5616 5626 5642 5652 5628 5625 5644 5650 5655 5663 5666 5671 5680 5686 5686 5686 5685 5682 5680 5677 5672 5668 5666 5663 5658 5655 5652 5649 5648 5646 5643 5641 5639 5637 5634 5631 5628 5625 5624
5580 5587 5594 5599 5602 5606 5622 5630 5625 5624 5634 5640 5648 5656 5665 5673 5677 5678 5679 5678 5678 5676 5673 5671 5667 5662 5660 5657 5655 5651 5647 5645 5642 5640 5638 5636 5634 5632 5630 5626 5622 5619 5616 5614
5572 5574 5579 5587 5597 5608 5617 5622 5629 5631 5633 5640 5648 5657 5665 5673 5674 5673 5672 5671 5671 5669 5666 5662 5659 5655 5652 5649 5647 5644 5641 5638 5635 5632 5629 5627 5625 5623 5621 5617 5612 5608 5606 5604
5561 5568 5571 5579 5596 5604 5614 5623 5629 5632 5635 5643 5649 5657 5665 5670 5674 5671 5668 5667 5666 5663 5659 5656 5653 5649 5646 5644 5642 5639 5636 5632 5629 5626 5622 5619 5617 5614 5611 5607 5602 5598 5596 5595
5546 5554 5560 5570 5586 5601 5614 5619 5625 5633 5640 5646 5653 5660 5666 5671 5674 5671 5668 5666 5663 5660 5656 5653 5650 5646 5644 5642 5639 5636 5632 5628 5624 5621 5617 5613 5610 5606 5602 5596 5591 5588 5587 5589
5538 5545 5551 5563 5578 5587 5602 5615 5623 5630 5638 5644 5651 5662 5670 5673 5675 5675 5670 5667 5663 5658 5655 5651 5648 5645 5643 5640 5637 5633 5629 5624 5621 5617 5614 5610 5605 5601 5597 5592 5586 5582 5582 5584